Tracking 28794 objects as of 19-Apr-2024
HD Live streaming from Space Station
objects crossing your sky now

FENGYUN 1C DEB

Track FENGYUN 1C DEB now!
10-day predictions


NORAD ID: 31266
Int'l Code: 1999-025BMY
Perigee: 734.9 km
Apogee: 926.7 km
Inclination: 99.2 °
Period: 101.4 minutes
Semi major axis: 7201 km
RCS: 0.0121 m2 (small)
Launch date: May 10, 1999
Source: People's Republic of China (PRC)
Launch site: Taiyaun Space Center, China (TSC)

Note: This is SATELLITE DEBRIS
Your satellite tracking list
Your tracking list is empty




NASA's NSSDC Master Catalog

Two Line Element Set (TLE):
1 31266U 99025BMY 24110.34866050  .00001389  00000-0  61176-3 0  9998
2 31266  99.1845  60.5501 0133125 197.1887 315.5613 14.20500865886477
Source of the keplerian elements: AFSPC